Theta_e
314 311 308 308 308 308 308 308 307 306 306 307 308 308 308 308 309 310 311 311 311 317 323 327 323 325 343 348 347 350 354 356 354 353 353 350 352 353 350 350 350 350 347 345 342
319 315 313 310 309 309 309 309 308 307 306 307 308 308 308 309 310 311 311 311 311 317 322 322 324 332 332 341 347 349 355 353 350 350 351 351 353 351 352 351 350 349 348 344 341
319 317 316 314 311 310 309 309 308 308 306 307 309 309 308 309 310 320 318 314 311 318 321 323 321 324 326 335 344 348 353 350 349 350 350 352 351 346 350 350 350 349 347 344 341
314 312 312 313 313 310 309 308 308 308 306 307 309 308 308 309 318 321 313 315 312 319 322 322 323 325 328 333 339 344 344 347 346 349 349 352 349 347 348 352 351 349 346 343 341
310 309 309 309 309 309 308 307 307 307 306 308 309 308 308 309 311 318 315 311 320 319 319 322 322 326 326 331 335 343 339 338 339 346 348 350 348 348 351 351 349 348 345 344 343
307 306 305 306 306 306 306 306 306 307 306 309 308 309 308 311 313 317 311 313 319 320 321 321 321 326 326 331 336 336 337 337 335 338 345 350 350 350 349 349 350 348 346 345 346
304 306 307 308 307 307 306 305 306 306 306 310 308 310 308 310 319 318 314 318 320 320 321 321 320 327 330 334 334 334 334 332 346 337 346 348 351 349 349 349 349 349 348 347 346
308 308 308 309 308 308 306 305 306 306 308 311 309 312 312 311 320 319 316 317 318 318 319 320 320 325 329 330 328 332 328 332 349 345 348 348 354 348 351 350 349 348 347 345 345
309 309 309 309 309 308 306 305 308 308 311 310 312 319 321 318 321 319 318 319 318 318 318 318 319 323 325 333 332 330 339 330 348 349 350 350 352 350 352 352 350 348 346 346 346
310 310 310 310 309 307 305 314 313 312 311 310 314 320 320 322 321 320 320 321 321 317 319 317 318 324 326 333 335 336 333 329 339 351 351 351 351 350 352 352 351 349 348 345 346
310 311 311 310 308 305 310 316 317 317 310 314 314 316 319 317 317 316 320 322 322 322 322 318 322 325 332 330 330 330 331 332 331 337 334 332 333 344 349 352 351 350 348 347 346
312 312 311 309 308 314 313 314 314 314 315 315 315 316 317 317 314 317 321 322 323 324 322 320 322 324 327 329 330 330 332 332 328 326 327 329 340 349 350 351 352 350 349 348 347
313 312 310 311 313 314 314 314 315 314 314 313 314 315 316 316 315 314 320 321 325 325 324 321 322 324 328 329 331 331 333 330 330 327 343 338 343 351 350 349 351 350 349 348 348
313 312 309 314 315 315 314 314 315 314 314 313 314 316 315 316 314 315 316 321 323 326 326 325 325 327 330 331 331 334 328 328 329 329 330 329 332 337 351 352 350 351 350 349 348
314 313 309 314 315 315 314 314 315 314 316 315 314 314 314 314 315 316 316 317 323 326 326 327 329 328 331 332 329 333 327 329 329 328 326 325 328 328 347 350 352 351 351 350 348
315 312 309 313 315 315 315 315 315 316 316 317 313 313 314 313 314 314 315 315 315 322 322 319 318 326 330 327 329 325 324 322 322 325 329 327 327 328 338 338 335 346 350 350 349
316 316 316 315 315 316 316 316 317 319 317 317 316 313 314 314 315 315 316 316 317 324 325 317 317 316 316 324 323 326 327 327 327 328 329 322 326 335 333 333 336 334 345 349 349
316 316 316 316 316 316 316 316 320 317 316 315 315 316 316 315 315 315 316 317 316 315 317 319 318 317 316 318 324 327 328 327 329 328 327 322 329 333 330 331 335 338 343 346 348
317 317 315 316 316 316 315 317 315 314 314 315 316 317 317 316 316 316 316 316 315 315 320 318 318 315 315 316 316 319 323 320 323 320 327 325 325 327 327 330 333 335 338 339 343
317 317 315 316 315 315 316 314 314 312 313 314 317 316 318 316 317 316 315 315 316 314 312 315 318 315 315 315 316 318 316 323 324 328 328 326 329 328 326 327 332 335 337 342 342
316 317 315 317 315 313 315 314 313 311 312 314 314 315 314 315 315 315 314 315 314 315 313 314 317 317 317 315 315 318 319 317 322 323 327 327 328 319 323 326 333 334 334 339 344
315 316 314 316 314 310 313 312 311 311 310 312 312 313 313 312 315 316 315 315 312 313 315 313 316 317 316 313 313 314 316 316 326 325 321 326 325 320 324 327 329 330 331 334 342
315 313 313 315 315 313 312 312 311 312 311 311 311 311 310 311 315 314 314 311 313 317 315 314 314 317 316 316 315 316 315 314 314 317 324 326 323 320 325 327 327 328 329 335 338
313 314 313 311 308 312 312 312 312 310 310 311 311 310 311 312 312 313 313 311 310 316 314 313 314 315 317 317 316 316 315 314 316 321 321 321 320 320 327 327 325 326 327 333 334
313 312 309 312 312 310 311 312 312 312 310 310 312 311 311 313 313 312 311 312 312 310 312 314 316 315 314 314 314 314 314 314 315 316 319 318 318 322 324 324 322 324 326 328 325
315 313 310 309 309 312 311 312 312 312 311 311 312 312 312 313 312 313 312 311 312 311 310 311 316 313 313 312 312 312 312 312 312 313 314 314 316 318 319 319 319 320 323 321 320
313 312 312 309 311 313 313 312 312 311 311 311 311 312 313 312 311 310 309 309 310 311 311 313 314 313 313 312 311 312 313 312 313 316 317 315 318 316 318 316 315 315 317 315 314
Wind_Speed
17 16 16 15 14 13 13 13 13 12 10 7 9 7 7 7 9 11 12 7 15 22 22 22 18 17 14 7 3 2 1 4 3 4 1 11 6 5 6 10 2 3 13 21 30
18 18 17 16 15 14 13 12 12 13 11 9 8 8 7 7 9 12 7 10 17 25 27 26 21 18 6 5 2 3 2 2 1 2 3 8 12 12 6 10 6 16 19 29 33
18 18 18 17 17 15 14 13 12 11 11 9 9 6 6 6 6 3 4 13 21 26 26 24 20 11 6 6 5 3 2 2 1 0 7 8 10 8 12 6 9 21 29 31 33
18 18 18 18 17 16 15 13 12 11 9 8 8 6 3 3 2 2 5 16 24 26 26 23 18 9 6 7 9 3 7 4 3 2 2 6 11 6 3 2 9 22 32 33 32
18 19 19 18 17 16 15 14 12 11 9 6 5 5 3 3 3 1 9 20 25 26 26 20 20 8 6 6 8 8 3 4 6 6 2 7 7 4 8 10 18 26 31 30 28
19 18 18 17 17 16 15 14 12 10 9 6 3 3 5 2 5 5 13 21 22 27 28 19 13 8 7 6 6 7 10 11 7 9 7 6 5 5 10 18 21 29 29 30 28
19 18 18 17 17 17 16 14 11 9 7 6 4 3 6 3 10 11 15 20 19 23 25 19 8 5 6 5 2 3 4 2 5 8 5 9 5 4 18 21 22 27 27 27 25
20 19 19 19 19 18 16 13 9 7 7 6 4 5 3 9 13 15 14 17 16 18 16 18 6 8 1 2 2 4 2 3 3 10 5 7 2 11 19 24 24 25 25 26 25
21 21 21 20 19 17 13 9 4 4 6 5 4 4 5 10 14 18 16 13 15 14 9 14 9 6 3 3 5 1 6 4 5 2 6 5 2 9 14 17 22 23 25 26 25
23 22 21 19 18 14 5 2 4 7 8 5 3 3 8 7 12 18 18 11 13 17 9 7 5 6 4 6 10 9 6 3 6 9 4 9 8 6 13 16 19 23 24 27 25
22 21 20 18 15 4 6 8 4 2 8 5 4 2 9 8 12 13 23 12 14 10 6 10 7 13 13 7 2 6 7 9 3 3 4 7 7 6 14 15 17 22 26 26 28
21 19 16 12 6 10 8 2 2 2 5 9 13 14 9 8 8 14 24 9 12 12 9 7 13 10 9 7 5 7 7 5 2 3 3 1 1 2 8 14 20 25 25 25 25
19 15 11 6 7 6 9 9 8 0 2 2 5 8 4 13 10 14 27 10 14 11 10 10 6 11 10 9 9 5 8 5 3 1 3 1 4 2 2 7 14 21 22 24 26
16 12 6 4 5 4 4 11 7 2 1 2 2 4 8 9 5 16 22 11 5 13 11 7 6 13 11 10 10 10 7 5 3 2 4 3 5 2 1 8 12 20 24 25 27
14 11 5 3 4 3 6 10 4 3 2 2 4 6 8 4 15 5 17 7 11 9 5 5 12 15 12 12 9 4 7 7 4 3 3 3 4 3 2 4 10 15 21 28 28
16 15 6 3 2 6 10 9 1 3 3 2 2 5 6 3 3 7 4 5 5 8 2 3 3 6 11 7 12 11 8 6 4 2 6 4 4 6 7 13 14 11 21 23 27
14 13 9 6 5 9 10 1 2 2 5 7 3 3 8 6 7 5 5 6 1 11 11 3 2 2 3 8 6 7 9 5 6 5 6 2 4 6 9 14 16 10 12 23 25
9 10 11 8 7 7 4 0 4 2 4 4 4 8 6 3 6 5 5 5 11 4 4 5 7 5 7 2 5 14 12 5 8 9 8 2 8 5 8 16 21 19 7 7 20
7 9 20 12 9 4 4 5 3 4 6 7 1 5 3 4 5 5 7 4 6 10 1 4 4 3 8 7 2 6 8 2 5 1 8 6 5 6 13 17 23 22 19 15 4
7 5 22 14 11 5 5 4 2 8 7 2 2 2 4 4 4 4 5 5 5 8 3 2 6 6 5 1 11 2 5 6 2 8 10 5 5 3 12 15 16 21 22 19 15
6 2 19 10 9 12 4 4 4 12 7 6 3 4 6 4 7 4 5 4 8 7 6 2 1 3 2 8 7 1 3 4 2 2 6 8 4 4 6 9 12 17 20 23 21
8 2 18 8 7 4 4 3 6 14 14 8 6 8 5 6 6 5 4 5 15 5 4 4 4 5 5 2 4 6 3 1 7 6 2 0 5 7 7 11 13 16 19 20 22
4 10 17 5 4 4 3 4 9 11 10 8 9 8 6 4 5 5 4 6 14 6 3 3 3 5 2 2 1 4 4 3 2 1 4 7 6 7 11 14 15 16 20 22 23
4 2 11 20 8 3 3 5 4 9 10 10 7 4 3 6 8 4 4 6 9 9 11 3 4 3 1 4 3 3 1 4 3 3 7 2 11 7 11 12 15 17 19 21 25
6 3 4 4 8 8 3 3 6 5 6 12 7 10 4 4 4 4 3 3 9 12 5 3 4 5 7 5 2 2 2 3 3 3 2 8 5 7 9 10 13 12 15 20 25
4 3 7 4 3 6 5 4 7 4 5 7 7 10 11 5 4 3 3 2 3 6 4 4 4 5 3 3 3 2 3 4 5 2 3 3 1 6 4 7 12 15 15 18 21
8 8 5 4 2 2 2 1 3 3 8 8 5 6 9 6 4 4 6 6 4 2 3 3 4 2 4 3 1 3 0 3 1 2 2 4 4 9 6 10 13 11 13 15 18
Wind_Direction
343 342 340 338 334 332 329 327 325 324 323 320 312 295 284 279 274 268 261 231 191 176 169 164 162 157 158 163 167 224 257 122 136 168 149 150 149 117 120 132 151 151 145 159 155
338 338 337 334 331 328 325 320 319 319 320 316 315 301 284 284 281 271 243 202 187 180 175 172 157 153 136 171 196 225 234 137 207 188 198 186 159 142 150 129 91 105 127 149 155
333 331 330 329 328 325 321 317 312 311 315 314 312 298 288 293 296 207 224 195 182 179 179 175 162 148 143 165 188 202 249 204 26 139 135 148 141 152 152 161 173 154 148 154 158
333 330 327 324 323 322 318 313 307 303 305 307 312 289 261 273 165 263 237 182 176 176 172 169 166 156 155 176 192 220 258 260 344 172 137 142 136 143 153 97 163 159 154 156 163
333 329 328 324 322 317 314 309 302 296 292 294 303 279 217 232 250 33 153 168 167 172 179 172 172 164 168 172 169 234 248 242 245 240 237 146 129 130 122 124 138 148 155 160 167
333 333 330 327 324 319 312 308 297 286 279 270 274 252 206 213 169 149 153 160 168 166 172 172 177 173 165 175 202 210 247 266 288 227 201 184 147 166 155 143 148 156 164 167 174
339 339 336 331 324 321 316 305 290 275 258 255 229 215 213 144 152 153 166 166 165 173 171 170 161 170 152 161 208 247 272 180 35 189 175 166 160 196 153 156 160 167 170 174 177
342 339 335 331 324 323 321 305 283 256 230 239 211 179 180 176 161 160 165 178 177 182 186 187 170 188 237 307 162 205 238 185 86 159 164 202 99 170 165 161 170 173 175 175 178
338 336 332 329 324 326 324 312 284 212 207 200 192 169 135 178 169 167 168 176 174 182 172 187 173 186 192 203 157 171 183 146 139 145 154 218 52 151 163 171 173 177 179 181 183
335 333 331 330 326 331 334 53 116 158 164 170 218 227 171 176 181 180 175 165 158 149 126 143 167 186 168 192 182 166 162 126 148 192 223 202 244 142 165 177 183 181 182 189 192
332 333 333 332 333 349 144 119 108 123 202 195 282 300 138 138 170 188 184 158 152 153 158 164 188 196 185 186 120 138 143 131 115 157 233 233 272 228 179 177 182 186 187 188 196
334 336 338 343 41 85 110 90 26 266 285 247 248 257 229 152 136 156 174 161 164 167 141 159 210 185 184 196 188 154 151 153 129 122 240 359 23 5 200 197 187 186 190 192 193
339 342 353 28 108 108 66 27 354 162 246 292 235 242 208 158 145 162 167 162 170 165 180 188 196 173 186 185 188 184 181 175 145 139 119 349 161 255 180 206 196 195 197 199 196
350 359 25 100 91 109 40 3 355 223 297 114 210 208 170 147 102 167 179 159 160 177 178 204 188 175 182 183 192 200 191 167 157 195 181 330 200 124 217 206 199 200 201 203 202
14 16 38 133 92 62 340 340 330 311 173 14 134 161 165 170 135 121 182 190 171 157 185 155 175 182 188 194 189 195 165 184 174 168 233 139 235 87 24 252 223 210 209 208 208
30 31 44 97 35 339 328 318 232 259 81 56 74 157 149 86 67 114 114 115 113 148 239 113 103 191 207 181 187 144 107 81 89 167 199 149 250 51 12 338 313 256 215 208 209
28 26 31 25 330 321 321 288 205 41 334 2 20 59 95 32 61 61 45 47 92 166 174 123 62 48 28 162 156 176 171 150 176 193 188 181 204 53 12 6 350 291 240 219 212
20 28 13 0 339 323 337 70 73 5 360 345 357 79 84 20 52 47 85 59 33 0 128 162 157 17 358 25 189 190 200 205 185 187 164 148 166 73 26 22 28 37 16 251 227
339 338 14 11 2 355 97 58 23 337 325 323 321 98 88 59 109 90 59 57 21 2 175 137 116 338 42 28 320 148 200 53 112 86 178 150 108 193 22 25 25 26 30 28 326
329 354 12 6 17 70 73 92 38 1 328 298 92 5 108 28 101 76 32 23 1 10 311 116 130 21 9 320 49 4 115 172 205 164 179 134 124 69 8 9 12 17 16 12 4
355 40 358 8 35 60 68 55 11 1 15 22 42 85 70 81 61 72 20 64 5 336 36 19 325 60 31 29 3 39 123 64 112 320 182 168 123 39 34 30 18 20 19 18 13
38 50 349 28 47 40 54 11 12 360 13 40 59 58 59 45 65 89 93 17 346 342 44 22 74 66 96 12 340 48 80 346 215 182 72 359 118 54 49 41 36 27 22 18 19
75 43 16 89 83 70 67 63 48 27 26 20 37 40 55 61 105 83 83 21 19 45 33 7 50 123 144 225 130 46 38 71 89 58 173 197 134 77 59 47 32 27 24 26 25
60 52 30 58 61 75 85 33 76 45 47 61 36 60 87 53 44 109 93 26 17 37 40 75 80 359 153 73 87 141 46 34 5 210 150 84 138 67 44 41 27 18 24 30 29
52 66 46 23 38 59 67 39 55 37 47 31 39 36 47 91 68 78 58 37 39 9 36 38 96 94 72 80 91 164 238 337 353 66 311 133 120 59 39 34 30 25 28 30 25
76 118 79 63 22 54 29 34 64 70 32 45 91 55 63 84 49 125 126 51 22 1 52 8 112 129 83 61 17 264 253 293 291 294 243 232 222 26 37 32 28 26 31 26 20
66 86 99 20 43 71 42 82 43 101 64 70 101 97 69 69 88 85 82 88 82 17 55 48 129 130 148 14 182 226 196 221 266 43 338 242 54 356 11 5 1 14 26 20 12